Simultaneous Nadir Overpasses (SNOs) Predictions

Prediction of SNOs between GOES-16 and TERRA Satellite Orbit:

Table of predicted SNOs for the next 14.0 days since TLE Epoch: 1/24/2025
Index Date Time (GOES-16) GOES-16 Lat,Lon TERRA Lat,Lon Distance(km) Time Diff (sec)
1 01/25/2025 02:42:25 0.02, -75.18 -0.37, -77.07 214.53 80
2 01/27/2025 02:21:09 0.01, -75.18 0.54, -72.58 295.49 80
3 01/27/2025 14:40:45 -0.01, -75.22 0.46, -77.35 241.77 80
4 01/29/2025 14:24:49 -0.00, -75.24 -0.49, -72.87 269.10 80
5 01/30/2025 02:44:34 0.00, -75.20 -0.53, -77.67 280.85 80
6 02/01/2025 02:23:17 -0.00, -75.22 0.41, -73.18 231.12 80
7 02/01/2025 14:42:53 0.00, -75.26 0.58, -77.95 305.83 80
8 02/03/2025 14:26:56 0.00, -75.29 -0.40, -73.47 207.17 80
9 02/04/2025 02:46:39 0.00, -75.26 -0.64, -78.27 342.00 80
10 02/06/2025 02:25:21 -0.00, -75.28 0.33, -73.78 171.56 80
11 02/06/2025 14:44:57 0.00, -75.33 0.66, -78.55 365.34 80
